Вернуться в каталог

STARLINK-34066

АктивенСвязьVLEO
NORAD 63909·PAYLOAD·🇺🇸 United States

Запущен May 10, 2025 с Cape Canaveral Space Force Station

Loading…

Ближайшие Пролёты (ближайшие 24 часа)

TLE

СвежийSource: CelesTrak SupGP

Эпоха: Sep 14, 2026, 22:36 UTC

1 63909C 25095V   26257.94215278 -.00035072  00000+0 -12701-2 0  2576
2 63909  42.9995 187.5483 0001262 263.6100 324.9982 15.27601160    19

Отслеживайте STARLINK-34066 в реальном времени с AllMySat

Download on the App Store